Auburn, CA

10:49 PM PST on December 06, 2019 (GMT -0800)
Auburn Municipal

Weather History for KAUN - August, 2019

Change the Weather History Date:

Saturday, August 24, 2019

  Actual Average Record
Temperature  
Mean Temperature 82 °F -  
Max Temperature 93 °F 89 °F 102 °F (2010)
Min Temperature 71 °F 59 °F 49 °F (1949)
Cooling Degree Days 17    
Growing Degree Days 32 (Base 50)    
Moisture  
Dew Point 55 °F    
Average Humidity 41    
Maximum Humidity 57    
Minimum Humidity 24    
Precipitation  
Precipitation 0.00 in - - ()
Sea Level Pressure  
Sea Level Pressure 29.93 in    
Wind  
Wind Speed 5 mph ()    
Max Wind Speed 12 mph    
Max Gust Speed 13 mph    
Visibility 10.0 miles    
Events      
Averages and records for this station are not official NWS values.
T = Trace of Precipitation, MM = Missing Value Source: Averaged Metar Reports

Daily Weather History Graph

Daily Weather History Graph

Search for Another Location

Airport or City:

Astronomy

Aug. 24, 2019 Rise Set
Actual Time 6:25 AM PDT 7:46 PM PDT
Civil Twilight 5:58 AM PDT 8:14 PM PDT
Nautical Twilight 5:24 AM PDT 8:47 PM PDT
Astronomical Twilight 4:49 AM PDT 9:22 PM PDT
Moon 12:23 AM PDT (8/24) 3:06 PM PDT (8/24)
Length of Visible Light 14h 16m
Length of Day
13h 20m
Last Quarter, 38% of the Moon is Illuminated
Aug 24
Last Quarter
Aug 30
New
Sep 5
First Quarter
Sep 13
Full
Sep 21
Last Quarter

Hourly Weather History & Observations

Time (PDT) Temp. Heat Index Dew Point Humidity Pressure Visibility Wind Dir Wind Speed Gust Speed Precip Events Conditions
12:15 AM 77.0 °F - 55.4 °F 47% 29.86 in 10.0 mi ESE 8.1 mph - N/A   Clear
12:35 AM 75.2 °F - 55.4 °F 50% 29.86 in 10.0 mi East 6.9 mph - N/A   Clear
12:55 AM 77.0 °F - 55.4 °F 47% 29.86 in 10.0 mi ESE 4.6 mph - N/A   Clear
1:15 AM 75.2 °F - 55.4 °F 50% 29.86 in 10.0 mi East 6.9 mph - N/A   Clear
1:35 AM 75.2 °F - 55.4 °F 50% 29.86 in 10.0 mi East 6.9 mph - N/A   Clear
1:55 AM 75.2 °F - 55.4 °F 50% 29.87 in 10.0 mi East 3.5 mph - N/A   Clear
2:15 AM 75.2 °F - 55.4 °F 50% 29.87 in 10.0 mi East 6.9 mph - N/A   Clear
2:35 AM 75.2 °F - 55.4 °F 50% 29.87 in 10.0 mi East 6.9 mph - N/A   Clear
2:55 AM 75.2 °F - 55.4 °F 50% 29.87 in 10.0 mi East 9.2 mph - N/A   Clear
3:15 AM 75.2 °F - 55.4 °F 50% 29.87 in 10.0 mi East 5.8 mph - N/A   Clear
3:35 AM 73.4 °F - 55.4 °F 53% 29.88 in 10.0 mi East 6.9 mph - N/A   Clear
3:55 AM 73.4 °F - 55.4 °F 53% 29.88 in 10.0 mi East 5.8 mph - N/A   Clear
4:15 AM 73.4 °F - 55.4 °F 53% 29.88 in 10.0 mi East 6.9 mph - N/A   Clear
4:35 AM 73.4 °F - 55.4 °F 53% 29.88 in 10.0 mi East 8.1 mph - N/A   Clear
4:55 AM 73.4 °F - 55.4 °F 53% 29.88 in 10.0 mi East 6.9 mph - N/A   Clear
5:15 AM 73.4 °F - 55.4 °F 53% 29.89 in 10.0 mi Calm Calm - N/A   Clear
5:35 AM 71.6 °F - 55.4 °F 57% 29.89 in 10.0 mi East 9.2 mph - N/A   Clear
5:55 AM 73.4 °F - 55.4 °F 53% 29.89 in 10.0 mi East 9.2 mph - N/A   Clear
6:15 AM 71.6 °F - 55.4 °F 57% 29.90 in 10.0 mi East 8.1 mph - N/A   Clear
6:35 AM 73.4 °F - 55.4 °F 53% 29.90 in 10.0 mi East 11.5 mph - N/A   Clear
6:55 AM 73.4 °F - 57.2 °F 57% 29.91 in 10.0 mi East 5.8 mph - N/A   Clear
7:15 AM 73.4 °F - 57.2 °F 57% 29.92 in 10.0 mi Calm Calm - N/A   Clear
7:35 AM 75.2 °F - 57.2 °F 53% 29.93 in 10.0 mi East 4.6 mph - N/A   Clear
7:55 AM 77.0 °F - 57.2 °F 50% 29.93 in 10.0 mi ESE 6.9 mph - N/A   Clear
8:15 AM 78.8 °F - 57.2 °F 47% 29.94 in 10.0 mi Calm Calm - N/A   Clear
8:35 AM 78.8 °F - 57.2 °F 47% 29.94 in 10.0 mi ESE 3.5 mph - N/A   Clear
8:55 AM 80.6 °F 80.8 °F 57.2 °F 45% 29.95 in 10.0 mi SE 3.5 mph - N/A   Clear
9:15 AM 80.6 °F 80.8 °F 57.2 °F 45% 29.95 in 10.0 mi SE 6.9 mph - N/A   Clear
9:35 AM 82.4 °F 82.0 °F 57.2 °F 42% 29.96 in 10.0 mi SE 4.6 mph - N/A   Clear
9:55 AM 84.2 °F 83.8 °F 59.0 °F 42% 29.96 in 10.0 mi Calm Calm - N/A   Clear
10:15 AM 84.2 °F 83.5 °F 57.2 °F 40% 29.97 in 10.0 mi Calm Calm - N/A   Clear
10:35 AM 87.8 °F 86.5 °F 57.2 °F 35% 29.97 in 10.0 mi Calm Calm - N/A   Clear
10:55 AM 87.8 °F 86.5 °F 57.2 °F 35% 29.97 in 10.0 mi Calm Calm - N/A   Clear
11:15 AM 87.8 °F 86.5 °F 57.2 °F 35% 29.97 in 10.0 mi SW 4.6 mph - N/A   Clear
11:55 AM 89.6 °F 87.3 °F 53.6 °F 29% 29.98 in 10.0 mi SW 4.6 mph - N/A   Clear
12:15 PM 89.6 °F - 51.8 °F 27% 29.97 in 10.0 mi SW 6.9 mph - N/A   Clear
12:35 PM 89.6 °F - 51.8 °F 27% 29.97 in 10.0 mi South 8.1 mph - N/A   Clear
12:55 PM 89.6 °F - 51.8 °F 27% 29.97 in 10.0 mi SW 4.6 mph - N/A   Clear
1:15 PM 91.4 °F - 51.8 °F 26% 29.97 in 10.0 mi WSW 6.9 mph - N/A   Clear
1:35 PM 91.4 °F - 50.0 °F 24% 29.97 in 10.0 mi WSW 5.8 mph - N/A   Clear
1:55 PM 91.4 °F - 51.8 °F 26% 29.97 in 10.0 mi WSW 6.9 mph - N/A   Clear
2:15 PM 93.2 °F 90.8 °F 53.6 °F 26% 29.96 in 10.0 mi SW 5.8 mph 12.7 mph N/A   Clear
2:35 PM 93.2 °F 90.8 °F 53.6 °F 26% 29.96 in 10.0 mi SW 6.9 mph - N/A   Clear
2:55 PM 93.2 °F 90.8 °F 53.6 °F 26% 29.96 in 10.0 mi Variable 4.6 mph - N/A   Clear
3:15 PM 93.2 °F 91.3 °F 55.4 °F 28% 29.95 in 10.0 mi West 6.9 mph - N/A   Clear
3:35 PM 93.2 °F 91.3 °F 55.4 °F 28% 29.95 in 10.0 mi Variable 6.9 mph 12.7 mph N/A   Clear
3:55 PM 93.2 °F 91.3 °F 55.4 °F 28% 29.95 in 10.0 mi West 5.8 mph - N/A   Clear
4:15 PM 93.2 °F 91.3 °F 55.4 °F 28% 29.94 in 10.0 mi Variable 3.5 mph - N/A   Clear
4:35 PM 93.2 °F 91.3 °F 55.4 °F 28% 29.94 in 10.0 mi Variable 5.8 mph - N/A   Clear
4:55 PM 93.2 °F 91.3 °F 55.4 °F 28% 29.94 in 10.0 mi West 4.6 mph - N/A   Clear
5:15 PM 93.2 °F 91.3 °F 55.4 °F 28% 29.94 in 10.0 mi West 3.5 mph - N/A   Clear
5:35 PM 93.2 °F 91.3 °F 55.4 °F 28% 29.94 in 10.0 mi Variable 5.8 mph - N/A   Clear
5:55 PM 91.4 °F 89.1 °F 53.6 °F 28% 29.94 in 10.0 mi WNW 3.5 mph - N/A   Clear
6:15 PM 91.4 °F 89.4 °F 55.4 °F 29% 29.94 in 10.0 mi Calm Calm - N/A   Clear
6:55 PM 89.6 °F 87.7 °F 55.4 °F 31% 29.94 in 10.0 mi Calm Calm - N/A   Clear
7:15 PM 87.8 °F 85.7 °F 53.6 °F 31% 29.94 in 10.0 mi Calm Calm - N/A   Clear
7:35 PM 87.8 °F 85.7 °F 53.6 °F 31% 29.94 in 10.0 mi Calm Calm - N/A   Clear
7:55 PM 84.2 °F 83.0 °F 55.4 °F 37% 29.95 in 10.0 mi Calm Calm - N/A   Clear
8:15 PM 78.8 °F - 53.6 °F 42% 29.95 in 10.0 mi Calm Calm - N/A   Clear
8:35 PM 77.0 °F - 53.6 °F 44% 29.95 in 10.0 mi Calm Calm - N/A   Clear
8:55 PM 77.0 °F - 53.6 °F 44% 29.95 in 10.0 mi Calm Calm - N/A   Clear
9:15 PM 80.6 °F 80.5 °F 55.4 °F 42% 29.96 in 10.0 mi Calm Calm - N/A   Clear
9:35 PM 80.6 °F 81.1 °F 59.0 °F 48% 29.97 in 10.0 mi SSE 4.6 mph - N/A   Clear
9:55 PM 80.6 °F 81.1 °F 59.0 °F 48% 29.97 in 10.0 mi Calm Calm - N/A   Clear
10:15 PM 78.8 °F - 57.2 °F 47% 29.98 in 10.0 mi Calm Calm - N/A   Clear
10:35 PM 80.6 °F 80.8 °F 57.2 °F 45% 29.98 in 10.0 mi SE 5.8 mph - N/A   Clear
10:55 PM 78.8 °F - 57.2 °F 47% 29.98 in 10.0 mi Calm Calm - N/A   Clear
11:15 PM 78.8 °F - 57.2 °F 47% 29.98 in 10.0 mi Calm Calm - N/A   Clear
11:35 PM 77.0 °F - 57.2 °F 50% 29.98 in 10.0 mi East 6.9 mph - N/A   Clear
11:55 PM 77.0 °F - 57.2 °F 50% 29.98 in 10.0 mi Calm Calm - N/A   Clear